Starlink 32276

operational
NORAD ID: 60944 Int'l Des: 2024-155 Owner: SPXS Country: US Constellation: starlink
LEOCIRCULAR

关于 Starlink 32276

正在加载描述...

实时位置

正在加载3D地球...

即将过境

高度历史

Altitude vs Time

uPlot chart will show altitude changes over time

两行轨道根数

1 60944U 24155W 25354.10755639 .00001985 00000-0 79100-4 0 9999
2 60944 53.1598 139.5204 0000904 83.0241 277.0862 15.30203017 74208
Epoch: Dec 20, 2025 • Age: 17 hours

当前状态

高度 493.2 km
速度 7.62 km/s
星下点 -50.42°S, 0.56°E
发射日期 Aug 31, 2024
运行时间 1.3 years
类型 internet

技术详情

分类 Payload
质量 730.00 kg
干质量 700.00 kg
总质量 730.00 kg
长度 0.30 m
直径 4.10 m
跨度 29.00 m
形状 Box + pan
制造商 SPXS
平台类型 Starlink V2M
阶段状态 In Orbit
所有者/国家 SPXS/US

大型星座

Loading constellations...